Showing default

KINEIS-4C, 63301

Orbit data source: Space-Track

KINEIS-4C, 63301 is a French payload satellite in SSO that was launched on Tue, 18 Mar 2025 UTC via an ELECTRON launch vehicle from the Rocket Lab Launch Complex (RLLC). Payload-class satellites include a variety of spacecraft equipped with specific instruments for various scientific and technological missions. These include communications satellites like Starlink; space stations such as the ISS; scientific satellites like the Hubble; Earth observation satellites from companies like Planet Labs, Umbra, and HawkEye 360; GPS; miniature CubeSats for education and research; and military/defense satellites.

Loading next visibility...
Identifier
63301, 2025-056B
Orbit
SSO
Last TLE update
9 hours ago
Origin
Manufacturer
KINEIS
Mission
Operational Commercial Communications
Bus & Motor
CUBESAT 16U, Unknown motor
Mass
28 kg wet, 28 kg dry
Launch date (UTC)
2025-03-18 (4 months ago)
Launch vehicle
ELECTRON
Launch site
Rocket Lab Launch Complex (RLLC)
Object type
Payload
Rocket body
Debris
Shape & HBR
Box + 2 Pan + 1 Ant, 0.8 m
Radar Cross Section
0.229 m², Medium (>0.1 m² and < 1m²)

Expand to show TLE details & history

TLE from 9 hours ago
0 KINEIS-4C
1 63301U 25056B   25199.57716808  .00001454  00000-0  23787-3 0  9993
2 63301  97.9856 324.8536 0001242  38.9894 321.1403 14.72300722 18045
Epoch: 2025-07-18T13:51Z
TLE epoch observation values (Epoch: 2025-07-18T13:51:07.322Z)
Latitude
0.00002°
Longitude
-179.55354°
Altitude
656.061 km
Speed
7.53 km/s
True Right ascension
21h 39m 24s
True Declination
0° 00' 00"
Sunlit
Object was in full shadow at epoch
Visualization orbit readout
Latitude
-46.33402°
Longitude
-7.58348°
Altitude
672.521 km
Speed
7.519 km/s
Apparent Right ascension
04h 26m 59s
Apparent Declination
-69° 40' 27"
Sunlit
Object is in daylight
Visualization observer readout
Local Sidereal Time
11:49:34
Azimuth
206.903° SW
Elevation
-44.079°
Doppler factor
1
Orbital elements
Apogee altitude
651.661 km
Perigee altitude
649.915 km
Semi-major axis
7,028.925 km
Eccentricity
0.00012
Inclination
97.9856°
RAAN
324.8536°
Arg. of periapsis
38.9894°
True anomaly
321.13137°
Mean anomaly
321.1403°
Eccentric anomaly
321.13583°
Mean motion
3.68307 °/min
Orbital period
97.74 mins
BSTAR
0.00023787
Loading maneuver chart data...
Loading SW <> Apogee altitude chart data...
Loading historical data...
Loading historical data...
Loading historical data...
Loading historical data...
Loading historical data...
Loading historical data...
Loading historical data...
|